When you browse on this site, cookies collect data to enhance your experience and personalize the content and advertising you see.
Visit our Privacy Policy to learn more. By continuing to use the site, you agree to this use of cookies and data.
  • en Belgique
  • Liste des pays
  • À 7 jours
  • Température de l'eau
  • Carte satellitaire
  • Carte météo
  • Widgets météo
  • user-avatar
    Se connecter

    Météo par heure à Albany

    Ce jour, 14 Décembre, Vendredi

    Heure Température Précipitation Vent Pression Humidité
    00:00 +15°C° 0 mm 6 m/s 758 mmHg 78%
    01:00 +15°C° 0 mm 6 m/s 757 mmHg 80%
    02:00 +15°C° 0 mm 6 m/s 757 mmHg 81%
    03:00 +15°C° 0 mm 6 m/s 757 mmHg 79%
    04:00 +15°C° 0 mm 5 m/s 756 mmHg 77%
    05:00 +15°C° 0 mm 5 m/s 756 mmHg 74%
    06:00 +17°C° 0 mm 5 m/s 756 mmHg 63%
    07:00 +21°C° 0 mm 5 m/s 756 mmHg 51%
    08:00 +25°C° 0 mm 5 m/s 756 mmHg 40%
    09:00 +27°C° 0 mm 5 m/s 756 mmHg 35%
    10:00 +30°C° 0 mm 5 m/s 755 mmHg 30%
    11:00 +34°C° 0 mm 4 m/s 755 mmHg 24%
    12:00 +34°C° 0 mm 5 m/s 754 mmHg 25%
    13:00 +34°C° 0 mm 5 m/s 754 mmHg 25%
    14:00 +35°C° 0 mm 6 m/s 753 mmHg 26%
    15:00 +34°C° 0 mm 6 m/s 753 mmHg 29%
    16:00 +32°C° 0 mm 7 m/s 753 mmHg 32%
    17:00 +30°C° 0 mm 7 m/s 753 mmHg 35%
    18:00 +28°C° 0 mm 7 m/s 752 mmHg 40%
    19:00 +26°C° 0 mm 7 m/s 752 mmHg 45%
    20:00 +23°C° 0 mm 7 m/s 752 mmHg 50%
    21:00 +22°C° 0 mm 6 m/s 752 mmHg 52%
    22:00 +22°C° 0 mm 5 m/s 752 mmHg 55%
    23:00 +21°C° 0 mm 5 m/s 752 mmHg 58%

    Demain, 15 Décembre, Samedi

    Heure Température Précipitation Vent Pression Humidité
    00:00 +21°C° 0 mm 4 m/s 751 mmHg 60%
    01:00 +21°C° 0 mm 3 m/s 751 mmHg 62%
    02:00 +21°C° 0 mm 3 m/s 750 mmHg 64%
    03:00 +20°C° 0.1 mm 3 m/s 750 mmHg 66%
    04:00 +20°C° 0.1 mm 3 m/s 750 mmHg 69%
    05:00 +20°C° 0.1 mm 4 m/s 750 mmHg 72%
    06:00 +21°C° 0.1 mm 4 m/s 750 mmHg 67%
    07:00 +22°C° 0.1 mm 4 m/s 751 mmHg 62%
    08:00 +25°C° 0.1 mm 4 m/s 751 mmHg 57%
    09:00 +23°C° 0.5 mm 4 m/s 751 mmHg 58%
    10:00 +23°C° 0.5 mm 4 m/s 751 mmHg 59%
    11:00 +23°C° 0.5 mm 4 m/s 751 mmHg 60%
    12:00 +23°C° 0.6 mm 4 m/s 751 mmHg 65%
    13:00 +22°C° 0.6 mm 4 m/s 750 mmHg 70%
    14:00 +22°C° 0.6 mm 4 m/s 750 mmHg 74%
    15:00 +21°C° 0.4 mm 4 m/s 750 mmHg 75%
    16:00 +21°C° 0.4 mm 5 m/s 750 mmHg 76%
    17:00 +21°C° 0.4 mm 5 m/s 750 mmHg 77%
    18:00 +20°C° 0.7 mm 6 m/s 750 mmHg 79%
    19:00 +19°C° 0.7 mm 6 m/s 750 mmHg 81%
    20:00 +18°C° 0.7 mm 7 m/s 751 mmHg 83%
    21:00 +17°C° 0.2 mm 7 m/s 751 mmHg 84%
    22:00 +17°C° 0.2 mm 7 m/s 752 mmHg 85%
    23:00 +17°C° 0.2 mm 7 m/s 752 mmHg 85%

    Après-demain, 16 Décembre, Dimanche

    Heure Température Précipitation Vent Pression Humidité
    00:00 +17°C° 0.4 mm 6 m/s 752 mmHg 85%
    01:00 +17°C° 0.4 mm 6 m/s 751 mmHg 85%
    02:00 +16°C° 0.4 mm 6 m/s 751 mmHg 85%
    03:00 +16°C° 0.3 mm 6 m/s 751 mmHg 84%
    04:00 +16°C° 0.3 mm 6 m/s 751 mmHg 83%
    05:00 +16°C° 0.3 mm 6 m/s 752 mmHg 82%
    06:00 +17°C° 0.2 mm 7 m/s 752 mmHg 77%
    07:00 +18°C° 0.2 mm 7 m/s 752 mmHg 72%
    08:00 +20°C° 0.2 mm 8 m/s 753 mmHg 67%
    09:00 +20°C° 0.2 mm 8 m/s 753 mmHg 69%
    10:00 +20°C° 0.2 mm 8 m/s 753 mmHg 70%
    11:00 +19°C° 0.2 mm 9 m/s 753 mmHg 71%
    12:00 +19°C° 0.2 mm 9 m/s 753 mmHg 71%
    13:00 +19°C° 0.2 mm 9 m/s 753 mmHg 71%
    14:00 +19°C° 0.2 mm 9 m/s 752 mmHg 71%
    15:00 +18°C° 0.1 mm 9 m/s 753 mmHg 72%
    16:00 +18°C° 0.1 mm 8 m/s 753 mmHg 74%
    17:00 +18°C° 0.1 mm 8 m/s 753 mmHg 75%
    18:00 +17°C° 0.1 mm 8 m/s 753 mmHg 77%
    19:00 +17°C° 0.1 mm 8 m/s 753 mmHg 79%
    20:00 +16°C° 0.1 mm 8 m/s 754 mmHg 81%
    21:00 +16°C° 0.1 mm 7 m/s 754 mmHg 81%
    22:00 +16°C° 0.1 mm 7 m/s 754 mmHg 81%
    23:00 +16°C° 0.1 mm 7 m/s 755 mmHg 81%

    17 Décembre, Lundi

    Heure Température Précipitation Vent Pression Humidité
    00:00 +16°C° 0.1 mm 7 m/s 755 mmHg 82%
    01:00 +16°C° 0.1 mm 7 m/s 754 mmHg 82%
    02:00 +16°C° 0.1 mm 7 m/s 754 mmHg 83%
    03:00 +16°C° 0.1 mm 7 m/s 754 mmHg 84%
    04:00 +16°C° 0.1 mm 7 m/s 754 mmHg 84%
    05:00 +16°C° 0.1 mm 7 m/s 754 mmHg 85%
    06:00 +16°C° 0.2 mm 7 m/s 755 mmHg 84%
    07:00 +16°C° 0.2 mm 7 m/s 755 mmHg 84%
    08:00 +16°C° 0.2 mm 6 m/s 755 mmHg 83%
    09:00 +17°C° 0.2 mm 6 m/s 755 mmHg 82%
    10:00 +17°C° 0.2 mm 6 m/s 756 mmHg 81%
    11:00 +17°C° 0.2 mm 6 m/s 756 mmHg 79%
    12:00 +19°C° 0.2 mm 6 m/s 756 mmHg 77%
    13:00 +19°C° 0.2 mm 6 m/s 755 mmHg 74%
    14:00 +20°C° 0.2 mm 6 m/s 755 mmHg 71%
    15:00 +20°C° 0.1 mm 6 m/s 755 mmHg 72%
    16:00 +20°C° 0.1 mm 7 m/s 755 mmHg 72%
    17:00 +18°C° 0.1 mm 7 m/s 756 mmHg 72%
    18:00 +19°C° 0.1 mm 6 m/s 756 mmHg 76%
    19:00 +17°C° 0.1 mm 6 m/s 756 mmHg 80%
    20:00 +16°C° 0.1 mm 5 m/s 757 mmHg 84%
    21:00 +16°C° 0.1 mm 5 m/s 757 mmHg 85%
    22:00 +16°C° 0.1 mm 5 m/s 757 mmHg 87%
    23:00 +15°C° 0.1 mm 5 m/s 757 mmHg 88%

    18 Décembre, Mardi

    Heure Température Précipitation Vent Pression Humidité
    00:00 +15°C° 0.1 mm 5 m/s 757 mmHg 88%
    01:00 +15°C° 0.1 mm 4 m/s 756 mmHg 88%
    02:00 +15°C° 0.1 mm 4 m/s 756 mmHg 88%
    03:00 +15°C° 0.1 mm 4 m/s 756 mmHg 87%
    04:00 +15°C° 0.1 mm 4 m/s 756 mmHg 87%
    05:00 +15°C° 0.1 mm 4 m/s 757 mmHg 86%
    06:00 +16°C° 0.1 mm 5 m/s 757 mmHg 83%
    07:00 +16°C° 0.1 mm 5 m/s 757 mmHg 80%
    08:00 +16°C° 0.1 mm 5 m/s 758 mmHg 77%
    09:00 +17°C° 0.1 mm 5 m/s 758 mmHg 75%
    10:00 +17°C° 0.1 mm 5 m/s 758 mmHg 72%
    11:00 +19°C° 0.1 mm 5 m/s 758 mmHg 69%
    12:00 +19°C° 0 mm 5 m/s 758 mmHg 67%
    13:00 +20°C° 0 mm 5 m/s 758 mmHg 66%
    14:00 +20°C° 0 mm 5 m/s 758 mmHg 64%
    15:00 +20°C° 0 mm 5 m/s 758 mmHg 65%
    16:00 +19°C° 0 mm 5 m/s 758 mmHg 66%
    17:00 +19°C° 0 mm 5 m/s 759 mmHg 68%
    18:00 +18°C° 0 mm 4 m/s 759 mmHg 71%
    19:00 +17°C° 0 mm 4 m/s 760 mmHg 75%
    20:00 +17°C° 0 mm 4 m/s 760 mmHg 78%
    21:00 +16°C° 0.1 mm 3 m/s 760 mmHg 80%
    22:00 +16°C° 0.1 mm 3 m/s 760 mmHg 82%
    23:00 +14°C° 0.1 mm 3 m/s 761 mmHg 84%

    19 Décembre, Mercredi

    Heure Température Précipitation Vent Pression Humidité
    00:00 +14°C° 0.1 mm 3 m/s 761 mmHg 84%
    01:00 +14°C° 0.1 mm 3 m/s 760 mmHg 85%
    02:00 +14°C° 0.1 mm 3 m/s 760 mmHg 85%
    03:00 +14°C° 0 mm 3 m/s 761 mmHg 86%
    04:00 +13°C° 0 mm 3 m/s 761 mmHg 86%
    05:00 +13°C° 0 mm 3 m/s 761 mmHg 86%
    06:00 +16°C° 0 mm 3 m/s 761 mmHg 78%
    07:00 +17°C° 0 mm 3 m/s 762 mmHg 70%
    08:00 +19°C° 0 mm 3 m/s 762 mmHg 62%
    09:00 +20°C° 0 mm 3 m/s 762 mmHg 58%
    10:00 +20°C° 0 mm 3 m/s 762 mmHg 53%
    11:00 +21°C° 0 mm 3 m/s 762 mmHg 49%
    12:00 +22°C° 0 mm 4 m/s 762 mmHg 48%
    13:00 +22°C° 0 mm 4 m/s 762 mmHg 47%
    14:00 +22°C° 0 mm 4 m/s 762 mmHg 47%
    15:00 +22°C° 0 mm 4 m/s 762 mmHg 49%
    16:00 +21°C° 0 mm 4 m/s 762 mmHg 51%
    17:00 +20°C° 0 mm 4 m/s 762 mmHg 53%
    18:00 +19°C° 0 mm 4 m/s 762 mmHg 59%
    19:00 +18°C° 0 mm 3 m/s 763 mmHg 64%
    20:00 +16°C° 0 mm 3 m/s 763 mmHg 70%
    21:00 +16°C° 0 mm 3 m/s 763 mmHg 72%
    22:00 +14°C° 0 mm 3 m/s 763 mmHg 75%
    23:00 +14°C° 0 mm 3 m/s 763 mmHg 77%
    Voir plus